"2009-12-16 00:00:00",1506526,6.367,225.5,9.36,1.918,11.35,103.1186,7.261,8.34,13.75,0,109.9,13.44,8.04,187.5
"2009-12-16 00:00:30",1506527,5.635,234.4,9.28,1.376,10.28,103.1381,7.311,8.34,13.76,0,109.9,13.44,8.09,196.4
"2009-12-16 00:01:00",1506528,4.861,239.5,7.004,0.726,9.21,103.1528,7.348,8.22,13.51,0,109.9,13.44,8.13,201.5
"2009-12-16 00:01:30",1506529,4.608,228.6,6.741,0.728,8.74,103.1797,7.417,8.37,13.51,0,109.9,13.44,8.19,190.6
"2009-12-16 00:02:00",1506530,7.516,228.6,6.63,1.241,12.02,103.1879,7.438,8.54,13.74,0,109.9,13.44,8.22,190.6
"2009-12-16 00:02:30",1506531,6.555,227.1,6.978,1.035,11.59,103.2011,7.472,8.59,13.82,0,109.9,13.44,8.25,189.1
"2009-12-16 00:03:00",1506532,7.553,230.8,3.427,0.861,13.47,103.223,7.527,8.72,13.98,0,109.9,13.44,8.31,192.8
"2009-12-16 00:03:30",1506533,6.867,233,7.593,1.405,11.85,103.2252,7.533,8.58,13.8,0,109.9,13.44,8.31,195.0
"2009-12-16 00:04:00",1506534,6.054,231.9,9.07,0.401,9,103.2535,7.605,8.47,13.54,0,109.9,13.47,8.38,193.9
"2009-12-16 00:04:30",1506535,5.646,231.1,6.44,1.094,9.48,103.2665,7.639,8.53,13.43,0,109.9,13.44,8.42,193.1
"2009-12-16 00:05:00",1506536,6.674,236.9,5.937,1.226,11.43,103.2928,7.706,8.67,13.48,0,109.9,13.44,8.48,198.9
"2009-12-16 00:05:30",1506537,7.11,250,7.674,1.212,12.7,103.3089,7.747,8.73,13.51,0,110,13.44,8.53,212.0
"2009-12-16 00:06:00",1506538,6.41,244.5,6.008,1.121,12.73,103.3279,7.796,8.93,13.67,0,109.9,13.44,8.57,206.5
"2009-12-16 00:06:30",1506539,6.921,239.9,6.85,1.238,13.47,103.3466,7.843,8.94,13.64,0,109.9,13.44,8.62,201.9
"2009-12-16 00:07:00",1506540,5.647,229.2,7.049,1.093,9.75,103.3635,7.887,8.86,13.53,0,109.9,13.43,8.67,191.2
"2009-12-16 00:07:30",1506541,5.722,249.7,10.66,0.827,9.5,103.3828,7.936,8.78,13.41,0,109.9,13.44,8.72,211.7
"2009-12-16 00:08:00",1506542,6.034,240.4,8.51,1.215,10.26,103.3986,7.976,8.97,13.54,0,109.9,13.43,8.76,202.4
"2009-12-16 00:08:30",1506543,5.576,242.6,9.47,1.246,10.5,103.4173,8.02,8.86,13.37,0,109.9,13.43,8.80,204.6
"2009-12-16 00:09:00",1506544,6.675,243.6,7.452,1.441,12.16,103.4331,8.06,9.12,13.58,0,109.9,13.43,8.84,205.6
"2009-12-16 00:09:30",1506545,8.04,249,6.739,1.078,13.44,103.4506,8.11,9.24,13.63,0,109.9,13.44,8.89,211.0
"2009-12-16 00:10:00",1506546,6.337,234.6,7.226,1.415,11.79,103.4673,8.15,9.16,13.47,0,109.9,13.43,8.93,196.6
"2009-12-16 00:10:30",1506547,5.075,229.6,6.154,1.114,9.44,103.4699,8.16,9.02,13.25,0,109.9,13.43,8.94,191.6
"2009-12-16 00:11:00",1506548,4.683,225.4,3.33,0.247,9.2,103.4961,8.23,9.15,13.28,0,109.9,13.47,9.01,187.4
"2009-12-16 00:11:30",1506549,6.714,235.1,5.524,1.181,11.16,103.5035,8.24,9.15,13.17,0,109.9,13.44,9.03,197.1
"2009-12-16 00:12:00",1506550,6.654,237.8,6.78,1.247,10.98,103.5063,8.25,9.24,13.25,0,109.9,13.44,9.03,199.8
"2009-12-16 00:12:30",1506551,7.501,248.1,7.324,0.808,12.63,103.5306,8.31,9.41,13.38,0,109.9,13.44,9.09,210.1
"2009-12-16 00:13:00",1506552,6.689,238,6.66,1.123,12.23,103.5365,8.33,9.46,13.43,0,109.9,13.44,9.11,200.0
"2009-12-16 00:13:30",1506553,6.392,236.8,6.547,1.465,11.28,103.5383,8.33,9.4,13.36,0,109.9,13.44,9.11,198.8
"2009-12-16 00:14:00",1506554,6.32,235.4,6.451,1.32,10.43,103.5458,8.35,9.35,13.28,0,109.9,13.44,9.13,197.4
"2009-12-16 00:14:30",1506555,5.996,237.9,5.956,1.393,10.1,103.5712,8.42,9.3,13.19,0,109.9,13.44,9.20,199.9
"2009-12-16 00:15:00",1506556,6.781,240.2,7.191,1.241,11.07,103.5731,8.42,9.59,13.36,0,109.9,13.44,9.20,202.2
"2009-12-16 00:15:30",1506557,7.027,242.7,7.48,1.227,11.34,103.576,8.43,9.49,13.18,0,109.9,13.44,9.21,204.7
"2009-12-16 00:16:00",1506558,7.34,245.9,5.04,1,12.42,103.5763,8.43,9.56,13.05,0,109.9,13.44,9.21,207.9
"2009-12-16 00:16:30",1506559,6.758,246.5,7.547,1.247,10.94,103.576,8.43,9.58,12.92,0,109.9,13.44,9.21,208.5
"2009-12-16 00:17:00",1506560,6.923,243,5.374,1.119,10.38,103.5763,8.43,9.43,12.83,0,110,13.44,9.21,205.0
"2009-12-16 00:17:30",1506561,6.722,238.4,9.37,1.364,9.76,103.5795,8.44,9.38,12.88,0,110,13.44,9.22,200.4
"2009-12-16 00:18:00",1506562,7.1,242.3,8.73,1.258,11.06,103.5769,8.43,9.61,13.17,0,110,13.44,9.21,204.3
"2009-12-16 00:18:30",1506563,6.185,250.2,6.338,0.949,9.82,103.5789,8.44,9.5,13.06,0,110,13.44,9.22,212.2
"2009-12-16 00:19:00",1506564,7.311,261.5,5.621,0.825,12.84,103.5792,8.44,9.58,13.11,0,110,13.44,9.22,223.5
"2009-12-16 00:19:30",1506565,7.274,258.6,4.83,1.228,12.23,103.5789,8.44,9.63,13.13,0,110,13.44,9.22,220.6
"2009-12-16 00:20:00",1506566,6.391,252.8,6.863,1.07,10.58,103.5792,8.44,9.46,12.96,0,110,13.44,9.22,214.8
"2009-12-16 00:20:30",1506567,6.526,245.8,6.146,1.17,9.11,103.5804,8.44,9.37,12.78,0,110,13.44,9.22,207.8
"2009-12-16 00:21:00",1506568,6.785,248.2,7.348,1.219,10.21,103.5793,8.44,9.54,13.02,0,110,13.44,9.22,210.2
"2009-12-16 00:21:30",1506569,7.041,243.9,8.02,1.266,9.73,103.574,8.42,9.49,13.14,0,110,13.44,9.21,205.9
"2009-12-16 00:22:00",1506570,7.828,250.7,12.38,1.425,10.98,103.5615,8.39,9.57,13.21,0,110,13.44,9.17,212.7
"2009-12-16 00:22:30",1506571,8.16,251.7,8.77,1.319,11.94,103.5499,8.36,9.62,13.23,0,110,13.44,9.14,213.7
"2009-12-16 00:23:00",1506572,7.287,254,6.756,1.393,10.99,103.5482,8.36,9.59,13.24,0,110,13.44,9.14,216.0
"2009-12-16 00:23:30",1506573,6.714,250.6,3.555,1.024,9.07,103.5482,8.36,9.38,13.02,0,110,13.44,9.14,212.6
"2009-12-16 00:24:00",1506574,6.935,254.4,8.13,0.956,10.42,103.5497,8.36,9.49,13.17,0,110,13.43,9.14,216.4
"2009-12-16 00:24:30",1506575,6.688,251.3,7.297,1.247,9.75,103.5491,8.36,9.45,13.15,0,110,13.43,9.14,213.3
"2009-12-16 00:25:00",1506576,7.259,247.9,6.075,1.152,10.69,103.5491,8.36,9.56,13.28,0,110,13.44,9.14,209.9
"2009-12-16 00:25:30",1506577,7.842,253,10.06,1.22,12.12,103.5494,8.36,9.58,13.33,0,110,13.44,9.14,215.0
"2009-12-16 00:26:00",1506578,8.11,245.8,6.519,1.18,11.43,103.55,8.36,9.48,13.31,0,110,13.43,9.14,207.8
"2009-12-16 00:26:30",1506579,6.892,238.9,4.73,0.898,8.9,103.5483,8.36,9.34,13.23,0,110,13.43,9.14,200.9
"2009-12-16 00:27:00",1506580,6.529,235.5,7.209,1.003,9.3,103.5424,8.34,9.48,13.46,0,110,13.43,9.13,197.5
"2009-12-16 00:27:30",1506581,6.939,242.6,7.01,1.272,10.48,103.5317,8.32,9.52,13.58,0,110,13.44,9.10,204.6
"2009-12-16 00:28:00",1506582,6.324,239.2,5.793,1.199,9.57,103.5201,8.29,9.43,13.56,0,110,13.44,9.07,201.2
"2009-12-16 00:28:30",1506583,6.48,239.2,7.111,1.265,10.41,103.5161,8.28,9.47,13.61,0,110,13.44,9.06,201.2
"2009-12-16 00:29:00",1506584,7.083,255.1,6.835,1.328,12.29,103.5173,8.28,9.53,13.64,0,110,13.44,9.06,217.1
"2009-12-16 00:29:30",1506585,6.35,258.1,5.676,1.279,11.14,103.5181,8.28,9.32,13.25,0,110,13.44,9.06,220.1
"2009-12-16 00:30:00",1506586,5.949,250.3,11.6,1.284,9.76,103.515,8.27,9.25,13.11,0,110,13.44,9.05,212.3
"2009-12-16 00:30:30",1506587,6.42,248.1,5.704,1.369,11.19,103.5072,8.25,9.46,13.51,0,110,13.44,9.03,210.1
"2009-12-16 00:31:00",1506588,5.797,242.7,5.591,0.808,9.07,103.4936,8.22,9.37,13.51,0,109.9,13.44,9.00,204.7
"2009-12-16 00:31:30",1506589,7.82,248.8,8.25,1.299,11.79,103.4868,8.2,9.34,13.42,0,110,13.44,8.98,210.8
"2009-12-16 00:32:00",1506590,6.955,240.7,8.88,1.212,11.38,103.4848,8.2,9.43,13.56,0,110,13.44,8.98,202.7
"2009-12-16 00:32:30",1506591,8.27,257,7.009,1.346,12.37,103.4854,8.2,9.42,13.53,0,110,13.44,8.98,219.0
"2009-12-16 00:33:00",1506592,6.969,257,2.595,0.309,9.79,103.4845,8.2,9.28,13.32,0,110,13.44,8.98,219.0
"2009-12-16 00:33:30",1506593,8.07,268.4,5.383,1.128,11.55,103.4897,8.21,9.3,13.29,0,110,13.44,8.99,230.4
"2009-12-16 00:34:00",1506594,7.496,270,6.362,1.219,10.7,103.5072,8.25,9.37,13.34,0,110,13.44,9.03,232.0
"2009-12-16 00:34:30",1506595,7.451,265.7,5.035,1.105,11.2,103.5219,8.29,9.3,13.24,0,110,13.44,9.07,227.7
"2009-12-16 00:35:00",1506596,8.38,275.3,8.1,1.244,12.13,103.5211,8.29,9.39,13.32,0,110,13.44,9.07,237.3
"2009-12-16 00:35:30",1506597,7.843,276.3,8.17,1.315,13.25,103.5397,8.34,9.44,13.34,0,110,13.44,9.12,238.3
"2009-12-16 00:36:00",1506598,6.677,264.5,9.62,1.5,11,103.5526,8.37,9.37,13.25,0,110,13.45,9.15,226.5
"2009-12-16 00:36:30",1506599,6.537,267.4,7.956,1.315,11.42,103.5546,8.38,9.38,13.22,0,110,13.44,9.16,229.4
"2009-12-16 00:37:00",1506600,5.876,261.3,7.167,1.071,10.34,103.5815,8.44,9.54,13.32,0,110,13.44,9.23,223.3
"2009-12-16 00:37:30",1506601,6.747,262.5,7.345,1.296,10.7,103.5874,8.46,9.38,13.11,0,110,13.44,9.24,224.5
"2009-12-16 00:38:00",1506602,6.856,263.7,6.876,1.167,11.16,103.5914,8.47,9.47,13.14,0,110,13.45,9.25,225.7
"2009-12-16 00:38:30",1506603,6.757,268.1,7.839,1.348,11.47,103.618,8.54,9.52,13.2,0,110,13.45,9.32,230.1
"2009-12-16 00:39:00",1506604,7.364,273.3,4.69,1.187,13.11,103.6228,8.55,9.6,13.23,0,110,13.45,9.33,235.3
"2009-12-16 00:39:30",1506605,6.38,268.9,6.229,1.071,10.72,103.6228,8.55,9.53,13.08,0,110,13.44,9.33,230.9
"2009-12-16 00:40:00",1506606,7.145,265.8,7.097,1.319,10.91,103.6327,8.57,9.61,13.1,0,110,13.44,9.36,227.8
"2009-12-16 00:40:30",1506607,7.055,259.6,6.693,1.341,10.43,103.6561,8.63,9.58,13.04,0,110,13.44,9.42,221.6
"2009-12-16 00:41:00",1506608,6.179,252.7,6.083,0.875,9.7,103.6567,8.64,9.65,12.98,0,110,13.44,9.42,214.7
"2009-12-16 00:41:30",1506609,5.115,253.1,6.651,1.131,8.82,103.6546,8.63,9.58,13.02,0,110,13.44,9.41,215.1
"2009-12-16 00:42:00",1506610,5.985,263,5.729,1.197,11.26,103.6576,8.64,9.77,13.3,0,110,13.44,9.42,225.0
"2009-12-16 00:42:30",1506611,6.28,259.3,8.14,1.23,10.71,103.6564,8.64,9.7,13.29,0,110,13.44,9.42,221.3
"2009-12-16 00:43:00",1506612,5.588,256.8,13.14,1.373,9.18,103.6543,8.63,9.75,13.28,0,110,13.44,9.41,218.8
"2009-12-16 00:43:30",1506613,6.433,270.7,5.963,1.051,9.77,103.6555,8.63,9.59,13.1,0,110,13.44,9.42,232.7
"2009-12-16 00:44:00",1506614,6.204,276.7,7.517,1.271,9.94,103.6541,8.63,9.6,13.17,0,110,13.44,9.41,238.7
"2009-12-16 00:44:30",1506615,6.596,282,5.857,1.242,10.88,103.6546,8.63,9.65,13.24,0,110,13.44,9.41,244.0
"2009-12-16 00:45:00",1506616,7,290.3,8.28,1.271,11.54,103.6546,8.63,9.66,13.29,0,110,13.44,9.41,252.3
"2009-12-16 00:45:30",1506617,7.187,293.4,9.65,1.224,12.52,103.6552,8.63,9.81,13.41,0,110,13.45,9.41,255.4
"2009-12-16 00:46:00",1506618,6.94,285.3,10.34,1.035,12.9,103.6579,8.64,9.8,13.39,0,110,13.45,9.42,247.3
"2009-12-16 00:46:30",1506619,6.485,280.5,6.823,1.497,11.1,103.6587,8.64,9.65,13.16,0,110,13.44,9.42,242.5
"2009-12-16 00:47:00",1506620,4.872,273.3,3.66,0.324,8.53,103.6558,8.63,9.67,13.22,0,110,13.48,9.42,235.3
"2009-12-16 00:47:30",1506621,6.272,281.6,7.575,1.036,10.41,103.6555,8.63,9.62,13.13,0,110,13.44,9.42,243.6
"2009-12-16 00:48:00",1506622,5.419,285.3,8.85,1.02,10,103.657,8.64,9.72,13.27,0,110,13.45,9.42,247.3
"2009-12-16 00:48:30",1506623,6.181,291.3,6.995,1.029,11.31,103.6567,8.64,9.75,13.39,0,110,13.45,9.42,253.3
"2009-12-16 00:49:00",1506624,6.377,301.4,8.37,1.152,12.97,103.6564,8.64,9.81,13.43,0,110,13.45,9.42,263.4
"2009-12-16 00:49:30",1506625,5.612,308.6,7.119,1.299,12.41,103.6564,8.64,9.76,13.4,0,110,13.45,9.42,270.6
"2009-12-16 00:50:00",1506626,4.553,288.6,5.319,0.995,10.07,103.6555,8.63,9.72,13.32,0,110,13.45,9.42,250.6
"2009-12-16 00:50:30",1506627,3.836,281.5,6.47,0.264,8.35,103.6549,8.63,9.58,13.12,0,110,13.47,9.41,243.5
"2009-12-16 00:51:00",1506628,5.539,297.8,11.66,1.136,10.33,103.6549,8.63,9.75,13.29,0,110,13.45,9.41,259.8
"2009-12-16 00:51:30",1506629,4.282,294.5,4.061,1.006,8.73,103.6552,8.63,9.59,13.17,0,110,13.45,9.41,256.5
"2009-12-16 00:52:00",1506630,3.522,297,2.13,0.257,9.18,103.6563,8.64,9.66,13.24,0,110,13.48,9.42,259.0
"2009-12-16 00:52:30",1506631,6.243,304.1,8.28,1.149,13.1,103.6635,8.65,9.85,13.42,0,110,13.45,9.44,266.1
"2009-12-16 00:53:00",1506632,6.517,307.9,8.65,0.883,13.52,103.6644,8.66,9.87,13.46,0,110,13.45,9.44,269.9
"2009-12-16 00:53:30",1506633,5.32,305,6.495,1.276,11.01,103.6669,8.66,9.78,13.41,0,110,13.45,9.44,267.0
"2009-12-16 00:54:00",1506634,4.151,300.7,2.574,0.184,8.54,103.662,8.65,9.6,13.29,0,110,13.48,9.43,262.7
"2009-12-16 00:54:30",1506635,5.11,305.9,6.102,1.17,10.02,103.67,8.67,9.65,13.35,0,110,13.45,9.45,267.9
"2009-12-16 00:55:00",1506636,5.013,305.4,8.08,1.213,10.98,103.6729,8.68,9.74,13.43,0,110,13.45,9.46,267.4
"2009-12-16 00:55:30",1506637,4.322,306.5,4.241,0.424,9.35,103.677,8.69,9.66,13.32,0,110,13.45,9.47,268.5
"2009-12-16 00:56:00",1506638,5.875,313.5,7.382,1.307,12.72,103.6779,8.69,9.86,13.52,0,110,13.44,9.47,275.5
"2009-12-16 00:56:30",1506639,6.547,322.6,6.069,0.91,13.65,103.6864,8.71,9.9,13.53,0,110,13.44,9.49,284.6
"2009-12-16 00:57:00",1506640,5.535,321.7,7.42,1.841,11.66,103.6915,8.73,9.81,13.44,0,110,13.44,9.51,283.7
"2009-12-16 00:57:30",1506641,4.943,302.2,10.59,0.581,9.03,103.6909,8.72,9.64,13.11,0,110,13.44,9.51,264.2
"2009-12-16 00:58:00",1506642,5.053,317.8,5.39,1.056,9.82,103.6915,8.73,9.79,13.29,0,110,13.44,9.51,279.8
"2009-12-16 00:58:30",1506643,5.175,321.1,5.538,1.281,9.9,103.6897,8.72,9.68,13.24,0,110,13.44,9.50,283.1
"2009-12-16 00:59:00",1506644,4.409,316.7,6.835,0.861,10.57,103.6894,8.72,9.81,13.38,0,110,13.44,9.50,278.7
"2009-12-16 00:59:30",1506645,6.001,321.2,6.897,1.254,12.5,103.6894,8.72,9.93,13.46,0,110,13.44,9.50,283.2
"2009-12-16 01:00:00",1506646,6.841,323,3.711,0.89,13.49,103.6924,8.73,9.9,13.44,0,110,13.44,9.51,285.0
"2009-12-16 01:00:30",1506647,4.683,298.9,10.59,0.794,9.79,103.69,8.72,9.81,13.33,0,110,13.48,9.50,260.9
"2009-12-16 01:01:00",1506648,5.884,303.1,6.637,1.308,10.01,103.6909,8.72,9.7,13.12,0,110,13.44,9.51,265.1
"2009-12-16 01:01:30",1506649,6.157,312.8,6.953,1.093,10.7,103.6912,8.72,9.84,13.29,0,110,13.45,9.51,274.8
"2009-12-16 01:02:00",1506650,5.227,306,7.034,0.605,9.56,103.6921,8.73,9.79,13.28,0,110,13.48,9.51,268.0
"2009-12-16 01:02:30",1506651,6.107,290.8,7.204,1.2,10.35,103.6897,8.72,9.81,13.3,0,110,13.45,9.50,252.8
"2009-12-16 01:03:00",1506652,6.589,285.6,6.056,1.572,12.32,103.6912,8.72,9.97,13.43,0,110,13.45,9.51,247.6
"2009-12-16 01:03:30",1506653,6.475,280.9,5.296,1.356,11.48,103.6909,8.72,9.92,13.33,0,110,13.45,9.51,242.9
"2009-12-16 01:04:00",1506654,6.059,302.6,7.991,1.472,10.42,103.6903,8.72,9.85,13.25,0,110,13.45,9.50,264.6
"2009-12-16 01:04:30",1506655,6.392,308.7,10.22,1.409,9.3,103.6906,8.72,9.7,13.13,0,110,13.45,9.51,270.7
"2009-12-16 01:05:00",1506656,6.445,312.1,6.994,1.408,10.62,103.6894,8.72,9.83,13.29,0,110,13.45,9.50,274.1
"2009-12-16 01:05:30",1506657,4.782,294.2,4.21,0.703,8.65,103.6877,8.72,9.68,13.14,0,110,13.45,9.50,256.2
"2009-12-16 01:06:00",1506658,7.909,298.4,8.23,1.35,12.47,103.6891,8.72,9.87,13.29,0,110,13.45,9.50,260.4
"2009-12-16 01:06:30",1506659,8.91,299.9,8.14,1.222,13.54,103.6886,8.72,9.97,13.18,0,110,13.45,9.50,261.9
"2009-12-16 01:07:00",1506660,8.43,308.4,5.779,1.264,13.23,103.6906,8.72,9.99,13.12,0,110,13.45,9.51,270.4
"2009-12-16 01:07:30",1506661,7.205,296,9.25,1.567,9.85,103.688,8.72,9.68,12.88,0,110,13.45,9.50,258.0
"2009-12-16 01:08:00",1506662,6.605,303,14.05,1.328,10.69,103.6888,8.72,9.81,13.11,0,110,13.45,9.50,265.0
"2009-12-16 01:08:30",1506663,6.014,306.8,4.834,1.01,10.11,103.6886,8.72,9.82,13.17,0,110,13.45,9.50,268.8
"2009-12-16 01:09:00",1506664,4.666,310.8,7.761,1.111,9.9,103.6897,8.72,9.72,13.11,0,110,13.45,9.50,272.8
"2009-12-16 01:09:30",1506665,5.21,318.8,7.626,1.473,11.88,103.6883,8.72,9.96,13.41,0,110,13.45,9.50,280.8
"2009-12-16 01:10:00",1506666,6.048,309.3,12.08,1.53,12.58,103.6912,8.72,9.92,13.38,0,110,13.45,9.51,271.3
"2009-12-16 01:10:30",1506667,8.35,295.5,8.43,2.229,11.5,103.6886,8.72,9.85,13.18,0,110,13.45,9.50,257.5
"2009-12-16 01:11:00",1506668,8.27,287.8,6.35,0.939,10.19,103.699,8.74,9.88,13.1,0,110,13.45,9.53,249.8
"2009-12-16 01:11:30",1506669,8.08,298,7.652,1.291,10.83,103.7188,8.8,9.82,13.04,0,110,13.45,9.58,260.0
"2009-12-16 01:12:00",1506670,8.41,304.1,6.736,1.472,10.8,103.7251,8.81,9.91,13.26,0,110,13.44,9.59,266.1
"2009-12-16 01:12:30",1506671,7.989,312.2,7.324,1.355,12.72,103.7233,8.81,9.96,13.31,0,110,13.44,9.59,274.2
"2009-12-16 01:13:00",1506672,7.359,317.5,8.7,1.212,11.73,103.721,8.8,9.93,13.27,0,110,13.44,9.58,279.5
"2009-12-16 01:13:30",1506673,7.682,305.3,13.56,1.892,10.97,103.7245,8.81,9.91,13.16,0,110,13.44,9.59,267.3
"2009-12-16 01:14:00",1506674,8.61,289.8,11.21,2.135,10.13,103.7323,8.83,9.79,12.85,0,110,13.44,9.61,251.8
"2009-12-16 01:14:30",1506675,8.56,289.2,6.735,1.354,11.55,103.7439,8.86,9.99,13.12,0,110,13.44,9.64,251.2
"2009-12-16 01:15:00",1506676,7.522,298.4,7.556,1.192,9.91,103.7555,8.89,9.9,13.14,0,110,13.44,9.67,260.4
"2009-12-16 01:15:30",1506677,7.693,305.3,10.14,1.586,12.45,103.7572,8.89,10.01,13.27,0,110,13.44,9.68,267.3
"2009-12-16 01:16:00",1506678,8.62,300.8,7.292,1.16,12.58,103.7567,8.89,10.03,13.32,0,110,13.44,9.67,262.8
"2009-12-16 01:16:30",1506679,7.532,293.8,10.85,1.605,10.95,103.7561,8.89,9.89,13.22,0,110,13.44,9.67,255.8
"2009-12-16 01:17:00",1506680,7.078,294.8,10.36,1.536,10.74,103.7552,8.89,9.97,13.32,0,110,13.44,9.67,256.8
"2009-12-16 01:17:30",1506681,8.08,301.2,5.28,1.561,9.49,103.754,8.88,9.84,13.14,0,110,13.44,9.67,263.2
"2009-12-16 01:18:00",1506682,10.25,302.9,6.343,0.979,11.71,103.7537,8.88,9.97,12.72,0,110,13.44,9.67,264.9
"2009-12-16 01:18:30",1506683,9.21,295.8,11.21,1.087,12.95,103.7528,8.88,10.08,12.89,0,110,13.45,9.66,257.8
"2009-12-16 01:19:00",1506684,7.464,304.9,14.87,2.408,12.83,103.7514,8.88,10.08,13.03,0,110,13.45,9.66,266.9
"2009-12-16 01:19:30",1506685,8.86,301.5,10.85,1.63,11.95,103.752,8.88,9.96,12.99,0,110,13.44,9.66,263.5
"2009-12-16 01:20:00",1506686,7.68,293.8,7.157,2.006,10.89,103.7525,8.88,9.99,12.98,0,110,13.44,9.66,255.8
"2009-12-16 01:20:30",1506687,9.14,293.1,7.591,1.516,11.35,103.7545,8.89,9.96,12.92,0,110,13.44,9.67,255.1
"2009-12-16 01:21:00",1506688,8.45,299.4,3.76,0.984,9.7,103.7661,8.92,9.98,13.01,0,110,13.45,9.70,261.4
"2009-12-16 01:21:30",1506689,8.68,309.3,7.945,1.602,12.56,103.772,8.93,10.08,13.14,0,109.9,13.45,9.71,271.3
"2009-12-16 01:22:00",1506690,7.146,309.4,4.732,1.271,12.17,103.7745,8.94,10.03,13.14,0,110,13.45,9.72,271.4
"2009-12-16 01:22:30",1506691,5.555,313.4,10.25,1.259,10.98,103.7694,8.92,10.1,13.27,0,110,13.44,9.71,275.4
"2009-12-16 01:23:00",1506692,5.711,311.8,12.72,1.411,10.09,103.7643,8.91,9.9,13.08,0,110,13.44,9.69,273.8
"2009-12-16 01:23:30",1506693,5.032,294.9,6.935,1.225,9.53,103.7564,8.89,9.99,13.23,0,110,13.44,9.67,256.9
"2009-12-16 01:24:00",1506694,7.422,302.2,9.92,1.215,11.06,103.7501,8.87,10,13.02,0,110,13.45,9.66,264.2
"2009-12-16 01:24:30",1506695,8.05,308.1,5.742,1.762,10.85,103.7493,8.87,9.99,13.02,0,110,13.45,9.66,270.1
"2009-12-16 01:25:00",1506696,8.74,314.4,7.168,1.386,12.95,103.7481,8.87,10.1,13.21,0,110,13.45,9.65,276.4
"2009-12-16 01:25:30",1506697,7.266,315.6,9.34,1.281,11.57,103.7464,8.87,10.11,13.28,0,110,13.45,9.65,277.6
"2009-12-16 01:26:00",1506698,6.928,304.3,6.928,1.397,10.86,103.7443,8.86,10.05,13.25,0,110,13.45,9.64,266.3
"2009-12-16 01:26:30",1506699,7.563,307,8.55,1.183,10.7,103.7449,8.86,9.94,13.14,0,110,13.44,9.64,269.0
"2009-12-16 01:27:00",1506700,6.034,309,7.097,0.877,9.53,103.7449,8.86,9.98,13.19,0,110,13.45,9.64,271.0
"2009-12-16 01:27:30",1506701,9.03,304.8,12.22,1.346,11.99,103.7458,8.86,9.95,13.11,0,110,13.45,9.65,266.8
"2009-12-16 01:28:00",1506702,7.016,304.3,12.65,1.411,11.08,103.7414,8.85,10.06,13.19,0,110,13.44,9.64,266.3
"2009-12-16 01:28:30",1506703,7.093,319.8,5.921,1.182,12.22,103.742,8.85,10.03,13.32,0,110,13.44,9.64,281.8
"2009-12-16 01:29:00",1506704,6.928,319.9,5.219,1.202,11.73,103.7432,8.86,10.04,13.4,0,110,13.44,9.64,281.9
"2009-12-16 01:29:30",1506705,5.478,306.6,2.54,0.481,8.72,103.7435,8.86,9.96,13.4,0,110,13.44,9.64,268.6
"2009-12-16 01:30:00",1506706,6.487,308.9,3.49,1.019,8.76,103.7438,8.86,9.82,13.31,0,110,13.44,9.64,270.9
"2009-12-16 01:30:30",1506707,7.598,314.3,7.148,1.353,10.83,103.7394,8.85,9.95,13.49,0,110,13.44,9.63,276.3
"2009-12-16 01:31:00",1506708,7.404,305.7,10.48,1.292,10.32,103.7355,8.84,9.92,13.51,0,110,13.44,9.62,267.7
"2009-12-16 01:31:30",1506709,7.298,303.8,6.589,1.651,12.01,103.725,8.81,10.06,13.63,0,110,13.44,9.59,265.8
"2009-12-16 01:32:00",1506710,8.67,304.7,8.27,1.413,13.06,103.7122,8.78,10.06,13.47,0,110,13.44,9.56,266.7
"2009-12-16 01:32:30",1506711,8.18,303,8.06,1.42,11.61,103.7054,8.76,10.03,13.38,0,110,13.44,9.54,265.0
"2009-12-16 01:33:00",1506712,6.741,298.7,3.569,0.592,8.72,103.7072,8.77,9.8,13.22,0,110,13.44,9.55,260.7
"2009-12-16 01:33:30",1506713,8.6,302,6.282,1.735,11.3,103.7075,8.77,9.93,13.24,0,110,13.44,9.55,264.0
"2009-12-16 01:34:00",1506714,8.57,305.7,6.794,1.226,11.64,103.7058,8.76,10,12.99,0,110,13.44,9.54,267.7
"2009-12-16 01:34:30",1506715,8.5,312.2,6.338,1.246,13.36,103.7058,8.76,9.93,12.72,0,110,13.45,9.54,274.2
"2009-12-16 01:35:00",1506716,8.72,315.4,5.952,1.079,12.8,103.7052,8.76,9.96,12.77,0,110,13.45,9.54,277.4
"2009-12-16 01:35:30",1506717,8.19,313.9,6.209,1.294,11.14,103.7052,8.76,10.01,13.07,0,110,13.45,9.54,275.9
"2009-12-16 01:36:00",1506718,9.73,312.4,7.723,1.674,12.74,103.7052,8.76,9.9,13.14,0,110,13.44,9.54,274.4
"2009-12-16 01:36:30",1506719,7.405,306.1,5.034,1.592,9.51,103.7043,8.76,9.89,13.06,0,110,13.44,9.54,268.1
"2009-12-16 01:37:00",1506720,9.13,308.6,6.095,1.111,13.42,103.7052,8.76,9.98,13.17,0,110,13.44,9.54,270.6
"2009-12-16 01:37:30",1506721,7.328,305.3,4.366,1.068,10.12,103.7082,8.77,9.89,12.89,0,110,13.45,9.55,267.3
"2009-12-16 01:38:00",1506722,9.39,316.9,7.382,1.343,12.55,103.7175,8.79,9.97,13.11,0,110,13.45,9.57,278.9
"2009-12-16 01:38:30",1506723,9.74,309.5,8.17,1.301,12.87,103.7243,8.81,10.02,13.22,0,110,13.45,9.59,271.5
"2009-12-16 01:39:00",1506724,8.74,305.6,7.136,1.631,12.07,103.7345,8.84,10.03,13.12,0,110,13.44,9.62,267.6
"2009-12-16 01:39:30",1506725,9.25,308.6,7.174,1.24,11.49,103.7367,8.84,9.94,13.09,0,110,13.44,9.62,270.6
"2009-12-16 01:40:00",1506726,8.01,313.3,7.917,1.347,11.73,103.7361,8.84,10.02,13.23,0,110,13.44,9.62,275.3
"2009-12-16 01:40:30",1506727,7.136,311.9,5.664,1.259,10.18,103.7361,8.84,9.88,13.11,0,110,13.45,9.62,273.9
"2009-12-16 01:41:00",1506728,8.74,316.4,6.34,1.428,12.36,103.7361,8.84,10.06,13.39,0,110,13.45,9.62,278.4
"2009-12-16 01:41:30",1506729,8.65,310.8,6.828,1.331,11.75,103.7364,8.84,10.09,13.47,0,110,13.45,9.62,272.8
"2009-12-16 01:42:00",1506730,7.97,314.7,6.864,1.234,11.7,103.7364,8.84,10.07,13.49,0,110,13.44,9.62,276.7
"2009-12-16 01:42:30",1506731,7.971,313.9,6.949,1.507,11.72,103.7355,8.84,10.03,13.44,0,110,13.44,9.62,275.9
"2009-12-16 01:43:00",1506732,8.21,315,7.021,1.237,10.79,103.7338,8.83,10.03,13.38,0,110,13.44,9.62,277.0
"2009-12-16 01:43:30",1506733,6.641,313.8,9.02,1.039,9.51,103.735,8.84,9.91,13.34,0,110,13.44,9.62,275.8
"2009-12-16 01:44:00",1506734,7.729,313.3,7.346,1.392,10.6,103.7344,8.83,9.95,13.32,0,110,13.44,9.62,275.3
"2009-12-16 01:44:30",1506735,7.215,315.3,6.635,1.134,10.94,103.7329,8.83,10.12,13.68,0,110,13.44,9.61,277.3
"2009-12-16 01:45:00",1506736,6.472,319.3,5.399,1.139,11.29,103.7276,8.82,10.01,14.29,0,110,13.44,9.60,281.3
"2009-12-16 01:45:30",1506737,4.747,285.4,10.23,1.526,8.04,103.701,8.75,9.92,15.35,0,110,13.44,9.53,247.4
"2009-12-16 01:46:00",1506738,5.795,306.6,11.28,1.567,9.2,103.6976,8.74,9.99,15.97,0,110,13.44,9.52,268.6
"2009-12-16 01:46:30",1506739,6.618,315.4,8.35,1.437,10.18,103.6716,8.67,9.85,14.27,0,110,13.44,9.46,277.4
"2009-12-16 01:47:00",1506740,6.178,321.1,5.763,1.224,10.05,103.666,8.66,9.86,13.86,0,110,13.44,9.44,283.1
"2009-12-16 01:47:30",1506741,6.921,323.1,7.004,1.95,11.08,103.6592,8.64,9.9,13.69,0,110,13.44,9.42,285.1
"2009-12-16 01:48:00",1506742,8.73,325.7,4.765,1.019,11.4,103.6344,8.58,9.96,13.99,0,110,13.44,9.36,287.7
"2009-12-16 01:48:30",1506743,8.03,321.8,6.502,1.431,11.58,103.6324,8.57,9.86,14.19,0,110,13.44,9.36,283.8
"2009-12-16 01:49:00",1506744,7.083,320.3,7.531,1.229,10.68,103.6089,8.51,9.84,14.19,0,110,13.44,9.30,282.3
"2009-12-16 01:49:30",1506745,6.701,319.1,4.912,0.931,9.59,103.5988,8.49,9.74,13.83,0,110,13.44,9.27,281.1
"2009-12-16 01:50:00",1506746,7.423,316.4,9.69,0.683,9.54,103.5974,8.48,9.58,13.44,0,110,13.44,9.27,278.4
"2009-12-16 01:50:30",1506747,7.113,321.6,5.642,1.212,9.6,103.5742,8.43,9.68,13.58,0,110,13.44,9.21,283.6
"2009-12-16 01:51:00",1506748,8.07,326.4,6.916,1.27,11.86,103.566,8.4,9.76,13.86,0,110,13.44,9.19,288.4
"2009-12-16 01:51:30",1506749,7.294,332.4,4.385,1.263,11.88,103.5661,8.4,9.75,13.97,0,110,13.45,9.19,294.4